Main page
METAR-TAF:

METAR-TAF

Airports :

Oil platform

Sleipner, Norway

latitude: 58-22-00N, longitude: 001-54-25E, elevation: 50 m

Current weather observation

The report was made 33 minutes ago, at 18:20 UTC
Wind 45 kt from the West/Northwest
Temperature 8°C
Humidity 61%
Pressure 1001 hPa
Visibility 10 km or more

METAR: ENSL 291820Z AUTO 29045KT 9999NDV BKN031/// 08/01 Q1001 W06/S5

Time: 19:53 (18:53 UTC)


TAF: missing

Weather observations and forecasts of more than 4000 airports (METAR and TAF reports).

The available stations are represented by yellow and red dots on the map.

Hover mouse over dot to see the name of the station.

Then click to see weather observations and forecasts.

To change the map : click on the green buttons with a black cross to zoom in, on the green button with a dash to zoom out, or on the green arrows for adjacent maps.


METAR-TAF: